Flag for South Africa Weather past 2 weeks in East London, South Africa

Now
66 °F

Clear.


Feels Like: 66 °F
Forecast: 67 / 74 °F
Wind: 18 mph from Southwest

Location: Port Elizabeth Airport

Current Time: Mar 5, 2015 at 12:47:07 AM

Latest Report: Mar 5, 2015 at 12:01 AM


Visibility: 10 mi

Pressure: 29.92 "Hg

Humidity: 88%

Dew point: 63 °F

Location of East LondonLocation

Historic Weather in East London — Graph

°F

East London temperature yesterday

Maximum temperature yesterday: 86 °F (at 11:47 AM)
Minimum temperature yesterday: 59 °F (at 3:00 AM)
Average temperature yesterday: 72 °F

Past Weeks' High & Low Weather Summary

 TemperatureHumidityPressure
High97 °F (Feb 26, 1:00 PM)94% (Feb 24, 5:00 AM)30.30 "Hg (Feb 24, 5:00 AM)
Low57 °F (Feb 22, 6:00 AM)34% (Feb 26, 1:00 PM)29.68 "Hg (Feb 18, 3:00 PM)
Average70 °F74%29.97 "Hg
* Reported Feb 17 10:00 PM — Mar 4 10:01 PM, East London, Weather by CustomWeather, © 2015

Note: Actual official high and low records may vary slightly from our data, if they occured in-between our weather recording intervals... More about our weather records

Advertising

East London weather history for previous 24 hours

 ConditionsComfort  
Time TempWeatherWind HumidityBarometerVisibility
10:01 PM
Wed, Mar 4
73 °FClear.12 mph61%29.95 "Hg10 mi
9:00 PM68 °FClear.20 mph78%29.86 "Hg10 mi
8:00 PM70 °FClear.26 mph78%29.86 "Hg10 mi
7:00 PM68 °FClear.30 mph78%29.80 "Hg10 mi
6:00 PM72 °FClear.29 mph69%29.77 "Hg10 mi
5:00 PM75 °FSunny.29 mph61%29.74 "Hg10 mi
4:00 PM79 °FSunny.31 mph48%29.74 "Hg10 mi
3:00 PM81 °FScattered clouds.28 mph48%29.74 "HgN/A
2:46 PM81 °FPassing clouds.25 mph51%29.74 "HgN/A
2:00 PM79 °FPassing clouds.23 mph54%29.77 "HgN/A
1:00 PM82 °FPassing clouds.25 mph40%29.80 "HgN/A
12:00 PM84 °FPassing clouds.8 mph45%29.74 "HgN/A
11:47 AM86 °FPassing clouds.8 mph43%29.77 "HgN/A
11:00 AM81 °FPassing clouds.8 mph51%29.77 "HgN/A
10:00 AM77 °FPassing clouds.7 mph57%29.80 "HgN/A
9:00 AM72 °FSunny.7 mph65%29.83 "Hg10 mi
8:00 AM68 °FSunny.9 mph78%29.83 "Hg10 mi
7:00 AM63 °FSunny.3 mph88%29.83 "Hg10 mi
6:00 AM59 °FSunny.2 mph94%29.83 "Hg10 mi
3:00 AM59 °FClear.2 mph88%29.86 "Hg4 mi
2:00 AM63 °FClear.6 mph88%29.89 "Hg5 mi
1:00 AM63 °FClear.5 mph88%29.92 "Hg10 mi
12:00 AM64 °FClear.6 mph83%29.92 "Hg10 mi
Weather by CustomWeather, © 2015

See weather overviewHow to use our weather pages